owner,sensor,date,latitude,longitude,vertical_datum,wind_speed,wind_to_direction,wind_speed_of_gust,qcFlag 
TCOON,ioos:station:TCOON:068:1,2019-12-01T00:18:00Z,27.2970,-97.4049,0.0,6.0,136.0,7.8,'11111222,11111222,11111222' 
TCOON,ioos:station:TCOON:068:1,2019-12-01T01:18:00Z,27.2970,-97.4049,0.0,6.0,134.0,6.6,'11111222,11111222,11111222' 
TCOON,ioos:station:TCOON:068:1,2019-12-01T02:18:00Z,27.2970,-97.4049,0.0,6.4,138.0,7.7,'11111222,11111222,11111222' 
TCOON,ioos:station:TCOON:068:1,2019-12-01T03:18:00Z,27.2970,-97.4049,0.0,5.9,146.0,7.1,'11111222,11111222,11111222' 
TCOON,ioos:station:TCOON:068:1,2019-12-01T04:18:00Z,27.2970,-97.4049,0.0,5.6,166.0,6.5,'11111222,11111222,11111222' 
TCOON,ioos:station:TCOON:068:1,2019-12-01T05:18:00Z,27.2970,-97.4049,0.0,3.1,174.0,3.7,'11111222,11111222,11111222' 
TCOON,ioos:station:TCOON:068:1,2019-12-01T06:18:00Z,27.2970,-97.4049,0.0,0.0,189.0,0.0,'11111222,11111222,11111222' 
TCOON,ioos:station:TCOON:068:1,2019-12-01T07:18:00Z,27.2970,-97.4049,0.0,2.0,332.0,2.3,'11111222,11111222,11111222' 
TCOON,ioos:station:TCOON:068:1,2019-12-01T08:18:00Z,27.2970,-97.4049,0.0,1.2,62.0,1.9,'11111222,11111222,11111222' 
TCOON,ioos:station:TCOON:068:1,2019-12-01T09:18:00Z,27.2970,-97.4049,0.0,3.3,334.0,3.7,'11111222,11111222,11111222' 
TCOON,ioos:station:TCOON:068:1,2019-12-01T10:18:00Z,27.2970,-97.4049,0.0,14.1,4.0,16.9,'11111222,11111222,11111222' 
TCOON,ioos:station:TCOON:068:1,2019-12-01T11:18:00Z,27.2970,-97.4049,0.0,10.2,9.0,12.2,'11111222,11111222,11111222' 
TCOON,ioos:station:TCOON:068:1,2019-12-01T12:18:00Z,27.2970,-97.4049,0.0,9.7,352.0,12.6,'11111222,11111222,11111222' 
TCOON,ioos:station:TCOON:068:1,2019-12-01T13:18:00Z,27.2970,-97.4049,0.0,10.2,346.0,13.5,'11111222,11111222,11111222' 
TCOON,ioos:station:TCOON:068:1,2019-12-01T14:18:00Z,27.2970,-97.4049,0.0,11.8,345.0,13.5,'11111222,11111222,11111222' 
TCOON,ioos:station:TCOON:068:1,2019-12-01T15:18:00Z,27.2970,-97.4049,0.0,10.7,343.0,12.8,'11111222,11111222,11111222' 
TCOON,ioos:station:TCOON:068:1,2019-12-01T16:18:00Z,27.2970,-97.4049,0.0,8.9,347.0,10.8,'11111222,11111222,11111222' 
TCOON,ioos:station:TCOON:068:1,2019-12-01T17:18:00Z,27.2970,-97.4049,0.0,6.4,344.0,7.8,'11111222,11111222,11111222' 
TCOON,ioos:station:TCOON:068:1,2019-12-01T18:18:00Z,27.2970,-97.4049,0.0,6.5,323.0,7.8,'11111222,11111222,11111222' 
TCOON,ioos:station:TCOON:068:1,2019-12-01T19:18:00Z,27.2970,-97.4049,0.0,6.3,320.0,7.2,'11111222,11111222,11111222' 
TCOON,ioos:station:TCOON:068:1,2019-12-01T20:18:00Z,27.2970,-97.4049,0.0,5.8,332.0,6.7,'11111222,11111222,11111222' 
TCOON,ioos:station:TCOON:068:1,2019-12-01T21:18:00Z,27.2970,-97.4049,0.0,4.7,12.0,5.6,'11111222,11111222,11111222' 
TCOON,ioos:station:TCOON:068:1,2019-12-01T22:18:00Z,27.2970,-97.4049,0.0,4.6,358.0,6.4,'11111222,11111222,11111222' 
TCOON,ioos:station:TCOON:068:1,2019-12-01T23:18:00Z,27.2970,-97.4049,0.0,5.0,0.0,5.8,'11111222,11111222,11111222' 
TCOON,ioos:station:TCOON:068:1,2019-12-02T00:18:00Z,27.2970,-97.4049,0.0,5.0,348.0,5.8,'11111222,11111222,11111222' 
TCOON,ioos:station:TCOON:068:1,2019-12-02T01:18:00Z,27.2970,-97.4049,0.0,3.8,348.0,4.4,'11111222,11111222,11111222' 
TCOON,ioos:station:TCOON:068:1,2019-12-02T02:18:00Z,27.2970,-97.4049,0.0,4.8,342.0,5.6,'11111222,11111222,11111222' 
TCOON,ioos:station:TCOON:068:1,2019-12-02T03:18:00Z,27.2970,-97.4049,0.0,5.4,342.0,6.1,'11111222,11111222,11111222' 
TCOON,ioos:station:TCOON:068:1,2019-12-02T04:18:00Z,27.2970,-97.4049,0.0,5.2,341.0,5.8,'11111222,11111222,11111222' 
TCOON,ioos:station:TCOON:068:1,2019-12-02T05:18:00Z,27.2970,-97.4049,0.0,3.8,352.0,4.9,'11111222,11111222,11111222' 
TCOON,ioos:station:TCOON:068:1,2019-12-02T06:18:00Z,27.2970,-97.4049,0.0,5.3,9.0,7.1,'11111222,11111222,11111222' 
TCOON,ioos:station:TCOON:068:1,2019-12-02T07:18:00Z,27.2970,-97.4049,0.0,5.4,3.0,6.4,'11111222,11111222,11111222' 
TCOON,ioos:station:TCOON:068:1,2019-12-02T08:18:00Z,27.2970,-97.4049,0.0,5.5,336.0,6.8,'11111222,11111222,11111222' 
TCOON,ioos:station:TCOON:068:1,2019-12-02T09:18:00Z,27.2970,-97.4049,0.0,5.8,335.0,7.2,'11111222,11111222,11111222' 
TCOON,ioos:station:TCOON:068:1,2019-12-02T10:18:00Z,27.2970,-97.4049,0.0,7.0,343.0,8.6,'11111222,11111222,11111222' 
TCOON,ioos:station:TCOON:068:1,2019-12-02T11:18:00Z,27.2970,-97.4049,0.0,4.9,1.0,6.4,'11111222,11111222,11111222' 
TCOON,ioos:station:TCOON:068:1,2019-12-02T12:18:00Z,27.2970,-97.4049,0.0,4.6,342.0,5.8,'11111222,11111222,11111222' 
TCOON,ioos:station:TCOON:068:1,2019-12-02T13:18:00Z,27.2970,-97.4049,0.0,4.9,338.0,5.7,'11111222,11111222,11111222' 
TCOON,ioos:station:TCOON:068:1,2019-12-02T14:18:00Z,27.2970,-97.4049,0.0,4.4,332.0,5.4,'11111222,11111222,11111222' 
TCOON,ioos:station:TCOON:068:1,2019-12-02T15:18:00Z,27.2970,-97.4049,0.0,6.1,352.0,7.5,'11111222,11111222,11111222' 
TCOON,ioos:station:TCOON:068:1,2019-12-02T16:18:00Z,27.2970,-97.4049,0.0,7.0,1.0,8.2,'11111222,11111222,11111222' 
TCOON,ioos:station:TCOON:068:1,2019-12-02T17:18:00Z,27.2970,-97.4049,0.0,7.0,350.0,8.2,'11111222,11111222,11111222' 
TCOON,ioos:station:TCOON:068:1,2019-12-02T18:18:00Z,27.2970,-97.4049,0.0,6.9,350.0,8.0,'11111222,11111222,11111222' 
TCOON,ioos:station:TCOON:068:1,2019-12-02T19:18:00Z,27.2970,-97.4049,0.0,5.2,353.0,6.8,'11111222,11111222,11111222' 
TCOON,ioos:station:TCOON:068:1,2019-12-02T20:18:00Z,27.2970,-97.4049,0.0,3.5,26.0,4.5,'11111222,11111222,11111222' 
TCOON,ioos:station:TCOON:068:1,2019-12-02T21:18:00Z,27.2970,-97.4049,0.0,2.2,46.0,4.4,'11111222,11111222,11111222' 
TCOON,ioos:station:TCOON:068:1,2019-12-02T22:18:00Z,27.2970,-97.4049,0.0,3.2,61.0,3.7,'11111222,11111222,11111222' 
TCOON,ioos:station:TCOON:068:1,2019-12-02T23:18:00Z,27.2970,-97.4049,0.0,2.7,84.0,3.5,'11111222,11111222,11111222' 
TCOON,ioos:station:TCOON:068:1,2019-12-03T00:18:00Z,27.2970,-97.4049,0.0,2.5,98.0,3.3,'11111222,11111222,11111222' 
TCOON,ioos:station:TCOON:068:1,2019-12-03T01:18:00Z,27.2970,-97.4049,0.0,2.3,138.0,2.7,'11111222,11111222,11111222' 
TCOON,ioos:station:TCOON:068:1,2019-12-03T02:18:00Z,27.2970,-97.4049,0.0,2.7,154.0,3.4,'11111222,11111222,11111222' 
TCOON,ioos:station:TCOON:068:1,2019-12-03T03:18:00Z,27.2970,-97.4049,0.0,2.3,153.0,3.0,'11111222,11111222,11111222' 
TCOON,ioos:station:TCOON:068:1,2019-12-03T04:18:00Z,27.2970,-97.4049,0.0,3.2,154.0,3.4,'11111222,11111222,11111222' 
TCOON,ioos:station:TCOON:068:1,2019-12-03T05:18:00Z,27.2970,-97.4049,0.0,2.5,155.0,3.1,'11111222,11111222,11111222' 
TCOON,ioos:station:TCOON:068:1,2019-12-03T06:18:00Z,27.2970,-97.4049,0.0,2.2,194.0,2.6,'11111222,11111222,11111222' 
TCOON,ioos:station:TCOON:068:1,2019-12-03T07:18:00Z,27.2970,-97.4049,0.0,2.2,183.0,2.5,'11111222,11111222,11111222' 
TCOON,ioos:station:TCOON:068:1,2019-12-03T08:18:00Z,27.2970,-97.4049,0.0,0.4,167.0,0.8,'11111222,11111222,11111222' 
TCOON,ioos:station:TCOON:068:1,2019-12-03T09:18:00Z,27.2970,-97.4049,0.0,1.4,124.0,1.8,'11111222,11111222,11111222' 
TCOON,ioos:station:TCOON:068:1,2019-12-03T10:18:00Z,27.2970,-97.4049,0.0,1.9,154.0,2.1,'11111222,11111222,11111222' 
TCOON,ioos:station:TCOON:068:1,2019-12-03T11:18:00Z,27.2970,-97.4049,0.0,2.4,174.0,2.6,'11111222,11111222,11111222' 
TCOON,ioos:station:TCOON:068:1,2019-12-03T12:18:00Z,27.2970,-97.4049,0.0,2.9,298.0,3.5,'11111222,11111222,11111222' 
TCOON,ioos:station:TCOON:068:1,2019-12-03T13:18:00Z,27.2970,-97.4049,0.0,2.6,310.0,3.0,'11111222,11111222,11111222' 
TCOON,ioos:station:TCOON:068:1,2019-12-03T14:18:00Z,27.2970,-97.4049,0.0,3.1,335.0,3.4,'11111222,11111222,11111222' 
TCOON,ioos:station:TCOON:068:1,2019-12-03T15:18:00Z,27.2970,-97.4049,0.0,2.1,341.0,2.7,'11111222,11111222,11111222' 
TCOON,ioos:station:TCOON:068:1,2019-12-03T16:18:00Z,27.2970,-97.4049,0.0,1.2,225.0,1.4,'11111222,11111222,11111222' 
TCOON,ioos:station:TCOON:068:1,2019-12-03T17:18:00Z,27.2970,-97.4049,0.0,0.4,258.0,0.6,'11111222,11111222,11111222' 
TCOON,ioos:station:TCOON:068:1,2019-12-03T18:18:00Z,27.2970,-97.4049,0.0,1.5,138.0,1.8,'11111222,11111222,11111222' 
TCOON,ioos:station:TCOON:068:1,2019-12-03T19:18:00Z,27.2970,-97.4049,0.0,3.4,145.0,3.9,'11111222,11111222,11111222' 
TCOON,ioos:station:TCOON:068:1,2019-12-03T20:18:00Z,27.2970,-97.4049,0.0,3.7,112.0,4.8,'11111222,11111222,11111222' 
TCOON,ioos:station:TCOON:068:1,2019-12-03T21:18:00Z,27.2970,-97.4049,0.0,3.7,110.0,5.0,'11111222,11111222,11111222' 
TCOON,ioos:station:TCOON:068:1,2019-12-03T22:24:00Z,27.2970,-97.4049,0.0,3.4,98.0,4.2,'11111222,11111222,11111222' 
TCOON,ioos:station:TCOON:068:1,2019-12-03T23:18:00Z,27.2970,-97.4049,0.0,3.8,111.0,4.5,'11111222,11111222,11111222' 
TCOON,ioos:station:TCOON:068:1,2019-12-04T00:18:00Z,27.2970,-97.4049,0.0,2.8,109.0,3.2,'11111222,11111222,11111222' 
TCOON,ioos:station:TCOON:068:1,2019-12-04T01:18:00Z,27.2970,-97.4049,0.0,1.4,111.0,2.0,'11111222,11111222,11111222' 
TCOON,ioos:station:TCOON:068:1,2019-12-04T02:18:00Z,27.2970,-97.4049,0.0,1.9,130.0,2.1,'11111222,11111222,11111222' 
TCOON,ioos:station:TCOON:068:1,2019-12-04T03:18:00Z,27.2970,-97.4049,0.0,2.9,138.0,3.6,'11111222,11111222,11111222' 
TCOON,ioos:station:TCOON:068:1,2019-12-04T04:18:00Z,27.2970,-97.4049,0.0,2.1,129.0,2.5,'11111222,11111222,11111222' 
TCOON,ioos:station:TCOON:068:1,2019-12-04T05:18:00Z,27.2970,-97.4049,0.0,1.4,140.0,1.5,'11111222,11111222,11111222' 
TCOON,ioos:station:TCOON:068:1,2019-12-04T06:18:00Z,27.2970,-97.4049,0.0,1.0,133.0,1.2,'11111222,11111222,11111222' 
TCOON,ioos:station:TCOON:068:1,2019-12-04T07:18:00Z,27.2970,-97.4049,0.0,0.5,144.0,0.7,'11111222,11111222,11111222' 
TCOON,ioos:station:TCOON:068:1,2019-12-04T08:18:00Z,27.2970,-97.4049,0.0,2.1,180.0,2.4,'11111222,11111222,11111222' 
TCOON,ioos:station:TCOON:068:1,2019-12-04T09:18:00Z,27.2970,-97.4049,0.0,1.7,188.0,2.0,'11111222,11111222,11111222' 
TCOON,ioos:station:TCOON:068:1,2019-12-04T10:18:00Z,27.2970,-97.4049,0.0,1.7,253.0,1.8,'11111222,11111222,11111222' 
TCOON,ioos:station:TCOON:068:1,2019-12-04T11:18:00Z,27.2970,-97.4049,0.0,3.7,302.0,4.3,'11111222,11111222,11111222' 
TCOON,ioos:station:TCOON:068:1,2019-12-04T12:18:00Z,27.2970,-97.4049,0.0,2.2,322.0,2.6,'11111222,11111222,11111222' 
TCOON,ioos:station:TCOON:068:1,2019-12-04T13:18:00Z,27.2970,-97.4049,0.0,2.4,305.0,3.5,'11111222,11111222,11111222' 
TCOON,ioos:station:TCOON:068:1,2019-12-04T14:18:00Z,27.2970,-97.4049,0.0,2.2,306.0,3.5,'11111222,11111222,11111222' 
TCOON,ioos:station:TCOON:068:1,2019-12-04T15:18:00Z,27.2970,-97.4049,0.0,2.1,317.0,2.7,'11111222,11111222,11111222' 
TCOON,ioos:station:TCOON:068:1,2019-12-04T16:18:00Z,27.2970,-97.4049,0.0,0.0,294.0,0.0,'11111222,11111222,11111222' 
TCOON,ioos:station:TCOON:068:1,2019-12-04T17:18:00Z,27.2970,-97.4049,0.0,0.6,153.0,0.8,'11111222,11111222,11111222' 
TCOON,ioos:station:TCOON:068:1,2019-12-04T18:18:00Z,27.2970,-97.4049,0.0,0.6,170.0,0.9,'11111222,11111222,11111222' 
TCOON,ioos:station:TCOON:068:1,2019-12-04T19:48:00Z,27.2970,-97.4049,0.0,3.1,48.0,3.5,'11111222,11111222,11111222' 
TCOON,ioos:station:TCOON:068:1,2019-12-04T20:18:00Z,27.2970,-97.4049,0.0,3.7,52.0,4.2,'11111222,11111222,11111222' 
 
DISCLAIMER: The Gulf of Mexico Coastal and Ocean Observing (GCOOS) Data Portal aggregates data from the regional data providers for the convenience of all data users. Data published on this website should not be used for navigation or certain other uses as we cannot guarantee data accuracy or availability. The data and delivery services are provided 'as is' without warranty of any kind. Data Source: Gulf of Mexico Coastal Ocean Observing System Data Portal (http://data.gcoos.org/) 
